This demonstration page uses our WeatherBlox Daily Observations layout. Learn more.

Hourly Observations for October 4, 2020

Temp ( °F °C ) Dew Point ( °F °C ) Humidity (%) Winds ( mph kmh ) Pressure ( in mb ) Visibility ( mi km ) Precip ( " mm )
12:15 am 00:15 Clear 45 7 43 6 93 93 Calm 30.3 1026 10 16.0934 0 0
12:55 am 00:55 Clear 43 6 43 6 100 100 Calm 30.29 1026 10 16.0934 0 0
1:15 am 01:15 Clear 43 6 43 6 100 100 Calm 30.29 1026 10 16.0934 0 0
1:35 am 01:35 Clear 41 5 41 5 100 100 Calm 30.29 1026 10 16.0934 0 0
1:55 am 01:55 Clear 43 6 43 6 100 100 Calm 30.29 1026 10 16.0934 0 0
2:15 am 02:15 Clear 43 6 41 5 93 93 Calm 30.29 1026 10 16.0934 0 0
2:35 am 02:35 Clear 43 6 43 6 100 100 Calm 30.29 1026 10 16.0934 0 0
2:55 am 02:55 Clear 41 5 41 5 100 100 Calm 30.28 1026 10 16.0934 0 0
3:15 am 03:15 Clear 41 5 41 5 100 100 Calm 30.27 1025 10 16.0934 0 0
3:35 am 03:35 Clear 41 5 41 5 100 100 WNW 3 6 30.27 1025 10 16.0934 0 0
3:55 am 03:55 Clear 41 5 41 5 100 100 Calm 30.27 1025 10 16.0934 0 0
4:15 am 04:15 Clear 39 4 39 4 100 100 WNW 3 6 30.28 1025 10 16.0934 0 0
4:35 am 04:35 Clear 41 5 41 5 100 100 Calm 30.27 1025 10 16.0934 0 0
4:55 am 04:55 Clear 39 4 39 4 100 100 Calm 30.28 1025 10 16.0934 0 0
5:15 am 05:15 Clear 39 4 39 4 100 100 Calm 30.28 1025 10 16.0934 0 0
5:35 am 05:35 Clear 41 5 41 5 100 100 Calm 30.27 1025 10 16.0934 0 0
5:55 am 05:55 Clear 37 3 37 3 100 100 N 3 6 30.28 1025 10 16.0934 0 0
6:15 am 06:15 Clear 39 4 39 4 100 100 Calm 30.29 1026 10 16.0934 0 0
6:35 am 06:35 Clear 39 4 39 4 100 100 Calm 30.29 1026 10 16.0934 0 0
6:55 am 06:55 Clear 39 4 39 4 100 100 N 3 6 30.28 1025 10 16.0934 0 0
7:15 am 07:15 Sunny 41 5 41 5 100 100 N 3 6 30.29 1026 10 16.0934 0 0
7:35 am 07:35 Sunny 39 4 39 4 100 100 Calm 30.3 1026 10 16.0934 0 0
7:55 am 07:55 Sunny 41 5 41 5 100 100 Calm 30.28 1026 10 16.0934 0 0
8:15 am 08:15 Sunny 41 5 41 5 100 100 Calm 30.28 1026 10 16.0934 0 0
8:35 am 08:35 Sunny 43 6 41 5 93 93 N 3 6 30.28 1025 10 16.0934 0 0
8:55 am 08:55 Sunny 45 7 43 6 93 93 Calm 30.28 1025 10 16.0934 0 0
9:15 am 09:15 Sunny 46 8 45 7 93 93 NNW 3 6 30.28 1025 10 16.0934 0 0
9:35 am 09:35 Sunny 50 10 45 7 82 82 Calm 30.28 1025 10 16.0934 0 0
9:55 am 09:55 Sunny 52 11 45 7 77 77 Calm 30.27 1025 10 16.0934 0 0
10:15 am 10:15 Sunny 54 12 45 7 72 72 Calm 30.26 1025 10 16.0934 0 0
10:35 am 10:35 Sunny 55 13 46 8 72 72 Calm 30.26 1025 10 16.0934 0 0
10:55 am 10:55 Sunny 57 14 46 8 67 67 Calm 30.25 1024 10 16.0934 0 0
11:15 am 11:15 Sunny 59 15 45 7 59 59 Calm 30.25 1024 10 16.0934 0 0
11:35 am 11:35 Sunny 61 16 45 7 55 55 Calm 30.25 1024 10 16.0934 0 0
11:55 am 11:55 Sunny 61 16 45 7 55 55 Calm 30.24 1024 10 16.0934 0 0
12:15 pm 12:15 Sunny 63 17 45 7 52 52 Calm 30.23 1024 10 16.0934 0 0
12:35 pm 12:35 Sunny 63 17 45 7 52 52 Calm 30.22 1023 10 16.0934 0 0
12:55 pm 12:55 Sunny 63 17 45 7 52 52 ESE 5 7 30.21 1023 10 16.0934 0 0
1:15 pm 13:15 Sunny 64 18 43 6 46 46 SW 3 6 30.2 1023 10 16.0934 0 0
1:35 pm 13:35 Sunny 64 18 43 6 46 46 Calm 30.18 1022 10 16.0934 0 0
1:55 pm 13:55 Sunny 64 18 45 7 49 49 E 3 6 30.16 1021 10 16.0934 0 0
2:15 pm 14:15 Sunny 64 18 45 7 49 49 Calm 30.15 1021 10 16.0934 0 0
2:35 pm 14:35 Sunny 64 18 45 7 49 49 S 7 11 30.14 1021 10 16.0934 0 0
2:55 pm 14:55 Sunny 66 19 43 6 43 43 SSW 7 11 30.14 1021 10 16.0934 0 0
3:15 pm 15:15 Sunny 68 20 45 7 43 43 S 3 6 30.13 1020 10 16.0934 0 0
3:35 pm 15:35 Sunny 68 20 45 7 43 43 SSW 6 9 30.12 1020 10 16.0934 0 0
3:55 pm 15:55 Sunny 68 20 45 7 43 43 S 8 13 30.12 1020 10 16.0934 0 0
4:15 pm 16:15 Sunny 66 19 45 7 46 46 SE 6 9 30.1 1019 10 16.0934 0 0
4:35 pm 16:35 Mostly Cloudy 66 19 43 6 43 43 SE 5 7 30.1 1019 10 16.0934 0 0
4:55 pm 16:55 Partly Cloudy 66 19 45 7 46 46 SE 5 7 30.1 1019 10 16.0934 0 0
5:15 pm 17:15 Sunny 66 19 45 7 46 46 S 6 9 30.1 1019 10 16.0934 0 0
5:35 pm 17:35 Partly Cloudy 66 19 45 7 46 46 S 3 6 30.09 1019 10 16.0934 0 0
5:55 pm 17:55 Sunny 64 18 46 8 52 52 S 5 7 30.09 1019 10 16.0934 0 0
6:15 pm 18:15 Sunny 63 17 46 8 56 56 S 3 6 30.1 1019 10 16.0934 0 0
6:35 pm 18:35 Sunny 63 17 48 9 59 59 S 3 6 30.1 1019 10 16.0934 0 0
6:55 pm 18:55 Clear 63 17 46 8 56 56 Calm 30.11 1019 10 16.0934 0 0
7:15 pm 19:15 Clear 61 16 46 8 59 59 Calm 30.11 1020 10 16.0934 0 0
7:35 pm 19:35 Clear 59 15 50 10 72 72 Calm 30.11 1020 10 16.0934 0 0
7:55 pm 19:55 Clear 59 15 50 10 72 72 Calm 30.12 1020 10 16.0934 0 0
8:15 pm 20:15 Clear 57 14 50 10 77 77 Calm 30.11 1020 10 16.0934 0 0
8:35 pm 20:35 Clear 61 16 48 9 63 63 SSE 3 6 30.11 1020 10 16.0934 0 0
8:55 pm 20:55 Clear 59 15 50 10 72 72 Calm 30.12 1020 10 16.0934 0 0
9:15 pm 21:15 Clear 59 15 50 10 72 72 Calm 30.12 1020 10 16.0934 0 0
9:35 pm 21:35 Clear 59 15 50 10 72 72 SSE 3 6 30.11 1020 10 16.0934 0 0
9:55 pm 21:55 Clear 59 15 50 10 72 72 S 3 6 30.11 1020 10 16.0934 0 0
10:15 pm 22:15 Clear 57 14 50 10 77 77 S 3 6 30.12 1020 10 16.0934 0 0
10:35 pm 22:35 Clear 55 13 50 10 82 82 Calm 30.11 1020 10 16.0934 0 0
10:55 pm 22:55 Clear 55 13 52 11 88 88 SSW 3 6 30.12 1020 10 16.0934 0 0
11:15 pm 23:15 Clear 54 12 52 11 94 94 Calm 30.11 1020 10 16.0934 0 0
11:35 pm 23:35 Clear 54 12 52 11 94 94 W 3 6 30.11 1020 10 16.0934 0 0
11:55 pm 23:55 Clear 52 11 52 11 100 100 SSW 5 7 30.11 1020 10 16.0934 0 0

Powered by AerisWeather